Location: ?????
(37.7324°N, 23.9257°E)
Time: 08:27:43
(UTC+00:00)

Atlas Centaur 2 - Pass Details

Date: 29 November 2020
Orbit: 459 x 1309 km, 30.4° (Epoch: 17 January)

Event Time Altitude Azimuth Distance (km) Brightness Sun altitude
Exits shadow 04:27:08 - 256° (WSW) 3,007 4.6 -10.3°
Reaches altitude 10° 04:28:08 10° 253° (WSW) 2,662 4.3 -10.1°
Maximum altitude 04:33:55 39° 187° (S) 1,185 3.1 -9.0°
Drops below altitude 10° 04:38:33 10° 119° (ESE) 2,115 6.0 -8.2°
Sets 04:40:48 0° 111° (ESE) 2,909 7.7 -7.7°
